Flag for Japan Weather past 2 weeks in Yokohama, Japan

Now
72 °F

Passing clouds.


Feels Like: 77 °F
Forecast: 57 / 73 °F
Wind: 12 mph from Southwest

Location: Tokyo International Airport

Current Time: Apr 26, 2015 at 11:54:19 AM

Latest Report: Apr 26, 2015 at 11:30 AM


Visibility: N/A

Pressure: 30.12 "Hg

Humidity: 41%

Dew point: 46 °F

Location of YokohamaLocation

Historic Weather in Yokohama — Graph

°F

Yokohama temperature yesterday

Maximum temperature yesterday: 68 °F (at 12:00 PM)
Minimum temperature yesterday: 59 °F (at 9:00 PM)
Average temperature yesterday: 63 °F

Past Weeks' High & Low Weather Summary

 TemperatureHumidityPressure
High72 °F (Apr 17, 10:30 AM)100% (Apr 13, 10:30 PM)30.45 "Hg (Apr 13, 10:30 PM)
Low48 °F (Apr 13, 9:30 PM)42% (Apr 18, 11:00 AM)29.47 "Hg (Apr 15, 4:30 PM)
Average60 °F75%29.97 "Hg
* Reported Apr 11 10:00 AM — Apr 26 10:30 AM, Yokohama, Weather by CustomWeather, © 2015

Note: Actual official high and low records may vary slightly from our data, if they occured in-between our weather recording intervals... More about our weather records

Advertising

Yokohama weather history for previous 24 hours

 ConditionsComfort  
Time TempWeatherWind HumidityBarometerVisibility
10:30 AM
Sun, Apr 26
64 °FPassing clouds.5 mph60%30.12 "HgN/A
10:00 AM63 °FPassing clouds.6 mph59%30.15 "HgN/A
9:30 AM63 °FPassing clouds.5 mph56%30.15 "HgN/A
9:00 AM61 °FSunny.5 mph55%30.15 "Hg10 mi
8:30 AM61 °FSunny.7 mph52%30.15 "Hg10 mi
8:00 AM61 °FSunny.7 mph52%30.15 "Hg10 mi
7:30 AM61 °FSunny.5 mph48%30.15 "Hg10 mi
7:00 AM59 °FSunny.6 mph51%30.15 "Hg10 mi
6:00 AM57 °FPassing clouds.5 mph55%30.15 "HgN/A
5:30 AM57 °FPassing clouds.5 mph55%30.15 "HgN/A
5:00 AM57 °FPassing clouds.6 mph55%30.12 "HgN/A
4:30 AM57 °FClear.6 mph59%30.12 "Hg10 mi
4:00 AM57 °FClear.6 mph63%30.12 "Hg10 mi
3:30 AM57 °FClear.8 mph67%30.12 "Hg10 mi
3:00 AM57 °FClear.8 mph72%30.12 "Hg10 mi
2:30 AM57 °FClear.7 mph67%30.12 "Hg10 mi
2:00 AM57 °FPassing clouds.9 mph67%30.12 "HgN/A
1:30 AM57 °FPassing clouds.9 mph72%30.12 "HgN/A
1:00 AM57 °FClear.8 mph72%30.12 "Hg10 mi
12:30 AM57 °FClear.7 mph72%30.12 "Hg10 mi
12:00 AM59 °FClear.9 mph68%30.12 "Hg10 mi
11:30 PM
Sat, Apr 25
59 °FClear.10 mph63%30.12 "Hg10 mi
11:00 PM59 °FClear.9 mph63%30.12 "Hg10 mi
10:30 PM59 °FClear.7 mph63%30.12 "Hg10 mi
10:00 PM59 °FClear.6 mph59%30.09 "Hg10 mi
9:30 PM59 °FClear.7 mph51%30.12 "Hg10 mi
9:00 PM59 °FClear.7 mph51%30.09 "Hg10 mi
8:30 PM61 °FPassing clouds.9 mph55%30.09 "HgN/A
8:00 PM61 °FPassing clouds.10 mph52%30.09 "HgN/A
7:30 PM61 °FPassing clouds.12 mph55%30.09 "HgN/A
7:00 PM61 °FPassing clouds.13 mph48%30.07 "HgN/A
6:30 PM61 °FPassing clouds.13 mph52%30.07 "HgN/A
6:00 PM61 °FBroken clouds.16 mph52%30.07 "HgN/A
5:30 PM61 °FSprinkles. Partly sunny.18 mph52%30.04 "HgN/A
5:00 PM61 °FScattered showers. Partly sunny.17 mph55%30.04 "HgN/A
4:30 PM63 °FBroken clouds.20 mph52%30.01 "HgN/A
4:00 PM63 °FScattered showers. Broken clouds.20 mph56%30.01 "HgN/A
3:30 PM64 °FScattered showers. Partly sunny.17 mph56%30.01 "HgN/A
3:00 PM64 °FScattered clouds.18 mph64%29.98 "HgN/A
2:30 PM66 °FScattered clouds.15 mph64%29.98 "HgN/A
2:00 PM66 °FScattered showers. Partly sunny.7 mph60%29.98 "HgN/A
1:30 PM66 °FPartly sunny.5 mph64%29.98 "HgN/A
1:00 PM66 °FScattered clouds.8 mph64%29.98 "HgN/A
12:30 PM66 °FScattered clouds.8 mph60%30.01 "HgN/A
12:00 PM68 °FScattered clouds.10 mph56%30.01 "HgN/A
11:30 AM66 °FScattered clouds.10 mph60%30.01 "HgN/A
11:00 AM66 °FPartly sunny.10 mph56%30.01 "HgN/A
Weather by CustomWeather, © 2015

See weather overviewHow to use our weather pages